Time,TemperatureF,DewpointF,PressureIn,WindDirection,WindDirectionDegrees,WindSpeedMPH,WindSpeedGustMPH,Humidity,HourlyPrecipIn,Conditions,Clouds,dailyrainin,SoftwareType,DateUTC
2013-03-09 00:00:00,60.6,48.0,29.79,NNW,338,15.0,15.0,63,0.00,,---,0.00,VWS V13.01,2013-03-09 05:00:00,
2013-03-09 00:05:00,60.4,47.8,29.80,NNW,338,0.0,15.0,63,0.00,,---,0.00,VWS V13.01,2013-03-09 05:05:00,
2013-03-09 00:15:00,60.1,47.9,29.79,NNW,338,0.0,7.2,64,0.00,,---,0.00,VWS V13.01,2013-03-09 05:15:00,
2013-03-09 00:20:00,60.1,47.9,29.80,NNW,338,0.0,0.0,64,0.00,,---,0.00,VWS V13.01,2013-03-09 05:20:00,
2013-03-09 00:25:00,59.9,47.7,29.80,NNW,338,0.0,0.0,64,0.00,,---,0.00,VWS V13.01,2013-03-09 05:25:00,
2013-03-09 00:35:00,59.7,48.0,29.80,NNW,338,0.0,5.8,65,0.00,,---,0.00,VWS V13.01,2013-03-09 05:35:00,
2013-03-09 00:45:00,59.7,47.5,29.80,NNW,338,0.0,0.0,64,0.00,,---,0.00,VWS V13.01,2013-03-09 05:45:00,
2013-03-09 00:50:00,59.5,47.4,29.80,NNW,338,0.0,0.0,64,0.00,,---,0.00,VWS V13.01,2013-03-09 05:50:00,
2013-03-09 00:55:00,59.5,47.4,29.79,NNW,338,0.0,0.0,64,0.00,,---,0.00,VWS V13.01,2013-03-09 05:55:00,
2013-03-09 01:00:00,59.5,47.4,29.79,NNW,338,0.0,0.0,64,0.00,,---,0.00,VWS V13.01,2013-03-09 06:00:00,
2013-03-09 01:10:00,59.4,47.2,29.79,North,0,0.0,2.0,64,0.00,,---,0.00,VWS V13.01,2013-03-09 06:10:00,
2013-03-09 01:20:00,59.2,47.4,29.79,North,0,0.0,0.0,65,0.00,,---,0.00,VWS V13.01,2013-03-09 06:20:00,
2013-03-09 01:30:00,59.0,47.3,29.79,North,0,0.0,0.0,65,0.00,,---,0.00,VWS V13.01,2013-03-09 06:30:00,
2013-03-09 01:40:00,58.8,47.5,29.79,North,0,0.0,0.0,66,0.00,,---,0.00,VWS V13.01,2013-03-09 06:40:00,
2013-03-09 01:50:00,58.8,47.5,29.79,North,0,0.0,0.0,66,0.00,,---,0.00,VWS V13.01,2013-03-09 06:50:00,
2013-03-09 02:00:00,58.8,47.5,29.78,North,0,0.0,0.0,66,0.00,,---,0.00,VWS V13.01,2013-03-09 07:00:00,
2013-03-09 02:10:00,58.8,47.5,29.78,North,0,0.0,0.0,66,0.00,,---,0.00,VWS V13.01,2013-03-09 07:10:00,
2013-03-09 02:15:00,58.8,47.5,29.78,North,0,0.0,9.4,66,0.00,,---,0.00,VWS V13.01,2013-03-09 07:15:00,
2013-03-09 02:25:00,58.8,47.9,29.78,North,0,0.0,0.0,67,0.00,,---,0.00,VWS V13.01,2013-03-09 07:25:00,
2013-03-09 02:35:00,58.8,47.9,29.78,North,0,0.0,0.0,67,0.00,,---,0.00,VWS V13.01,2013-03-09 07:35:00,
2013-03-09 02:45:00,58.8,47.9,29.77,North,0,0.0,0.0,67,0.00,,---,0.00,VWS V13.01,2013-03-09 07:45:00,
2013-03-09 02:55:00,58.6,47.7,29.76,North,0,0.0,0.0,67,0.00,,---,0.00,VWS V13.01,2013-03-09 07:55:00,
2013-03-09 03:00:00,58.6,48.1,29.76,North,0,0.7,0.7,68,0.00,,---,0.00,VWS V13.01,2013-03-09 08:00:00,
2013-03-09 03:10:00,58.6,48.1,29.76,NNW,338,1.1,1.1,68,0.00,,---,0.00,VWS V13.01,2013-03-09 08:10:00,
2013-03-09 03:20:00,58.6,48.1,29.76,NNW,338,9.8,9.8,68,0.00,,---,0.00,VWS V13.01,2013-03-09 08:20:00,
2013-03-09 03:30:00,58.5,48.0,29.76,NNW,338,0.4,0.4,68,0.00,,---,0.00,VWS V13.01,2013-03-09 08:30:00,
2013-03-09 03:35:00,58.5,48.0,29.76,NNW,338,0.0,0.4,68,0.00,,---,0.00,VWS V13.01,2013-03-09 08:35:00,
2013-03-09 03:40:00,58.3,47.8,29.76,NNW,338,0.0,0.0,68,0.00,,---,0.00,VWS V13.01,2013-03-09 08:40:00,
2013-03-09 03:45:00,58.3,47.8,29.76,NNW,338,0.0,0.0,68,0.00,,---,0.00,VWS V13.01,2013-03-09 08:45:00,
2013-03-09 03:50:00,58.3,47.8,29.76,NNW,338,0.0,0.0,68,0.00,,---,0.00,VWS V13.01,2013-03-09 08:50:00,
2013-03-09 04:00:00,58.1,47.6,29.76,NNW,338,0.0,0.2,68,0.00,,---,0.00,VWS V13.01,2013-03-09 09:00:00,
2013-03-09 04:10:00,58.1,48.0,29.76,NNW,338,0.0,0.0,69,0.00,,---,0.00,VWS V13.01,2013-03-09 09:10:00,
2013-03-09 04:20:00,58.1,48.0,29.76,NNW,338,0.0,9.6,69,0.00,,---,0.00,VWS V13.01,2013-03-09 09:20:00,
2013-03-09 04:30:00,58.1,48.0,29.75,NNW,338,0.0,7.8,69,0.00,,---,0.00,VWS V13.01,2013-03-09 09:30:00,
2013-03-09 04:40:00,57.9,47.8,29.75,NNW,338,0.0,0.0,69,0.00,,---,0.00,VWS V13.01,2013-03-09 09:40:00,
2013-03-09 04:45:00,57.9,47.8,29.75,NNW,338,0.0,0.0,69,0.00,,---,0.00,VWS V13.01,2013-03-09 09:45:00,
2013-03-09 04:55:00,57.7,47.7,29.76,NNW,338,0.0,0.0,69,0.00,,---,0.00,VWS V13.01,2013-03-09 09:55:00,
2013-03-09 05:00:00,57.7,47.7,29.76,NNW,338,0.0,0.0,69,0.00,,---,0.00,VWS V13.01,2013-03-09 10:00:00,
2013-03-09 05:10:00,57.6,47.5,29.76,NNW,338,0.0,0.0,69,0.00,,---,0.00,VWS V13.01,2013-03-09 10:10:00,
2013-03-09 05:15:00,57.6,47.9,29.76,NNW,338,1.6,3.4,70,0.00,,---,0.00,VWS V13.01,2013-03-09 10:15:00,
2013-03-09 05:25:00,57.6,47.9,29.76,NNW,338,0.0,1.6,70,0.00,,---,0.00,VWS V13.01,2013-03-09 10:25:00,
2013-03-09 05:35:00,57.7,48.0,29.77,NNW,338,0.0,4.0,70,0.00,,---,0.00,VWS V13.01,2013-03-09 10:35:00,
2013-03-09 05:45:00,57.9,48.2,29.77,NNW,338,0.0,0.0,70,0.00,,---,0.00,VWS V13.01,2013-03-09 10:45:00,
2013-03-09 05:55:00,57.9,48.2,29.77,NNW,338,0.0,0.0,70,0.00,,---,0.00,VWS V13.01,2013-03-09 10:55:00,
2013-03-09 06:00:00,57.9,48.2,29.77,NNW,338,1.1,1.1,70,0.00,,---,0.00,VWS V13.01,2013-03-09 11:00:00,
2013-03-09 06:10:00,57.9,48.2,29.78,NW,315,0.0,0.0,70,0.00,,---,0.00,VWS V13.01,2013-03-09 11:10:00,
2013-03-09 06:20:00,57.9,48.2,29.78,NW,315,0.0,0.0,70,0.00,,---,0.00,VWS V13.01,2013-03-09 11:20:00,
2013-03-09 06:30:00,57.9,48.2,29.78,WNW,292,0.0,16.6,70,0.00,,---,0.00,VWS V13.01,2013-03-09 11:30:00,
2013-03-09 06:40:00,57.9,48.6,29.78,WNW,292,0.0,0.0,71,0.00,,---,0.00,VWS V13.01,2013-03-09 11:40:00,
2013-03-09 06:50:00,57.9,48.6,29.79,WNW,292,0.0,0.0,71,0.00,,---,0.00,VWS V13.01,2013-03-09 11:50:00,
2013-03-09 07:00:00,57.9,48.6,29.79,WNW,292,0.0,13.0,71,0.00,,---,0.00,VWS V13.01,2013-03-09 12:00:00,
2013-03-09 07:10:00,58.1,48.8,29.79,WNW,292,0.7,0.7,71,0.00,,---,0.00,VWS V13.01,2013-03-09 12:10:00,
2013-03-09 07:15:00,58.3,49.3,29.80,NW,315,10.3,10.3,72,0.00,,---,0.00,VWS V13.01,2013-03-09 12:15:00,
2013-03-09 07:25:00,58.8,49.8,29.80,NW,315,4.5,4.7,72,0.00,,---,0.00,VWS V13.01,2013-03-09 12:25:00,
2013-03-09 07:35:00,58.8,49.8,29.80,NW,315,4.5,4.5,72,0.00,,---,0.00,VWS V13.01,2013-03-09 12:35:00,
2013-03-09 07:40:00,58.8,49.8,29.81,WNW,292,10.7,13.0,72,0.00,,---,0.00,VWS V13.01,2013-03-09 12:40:00,
2013-03-09 07:50:00,59.5,50.5,29.81,NW,315,4.3,8.3,72,0.00,,---,0.00,VWS V13.01,2013-03-09 12:50:00,
2013-03-09 08:00:00,60.1,50.7,29.81,NW,315,1.3,4.7,71,0.00,,---,0.00,VWS V13.01,2013-03-09 13:00:00,
2013-03-09 08:10:00,61.2,51.7,29.81,NNW,338,2.9,8.1,71,0.00,,---,0.00,VWS V13.01,2013-03-09 13:10:00,
2013-03-09 08:20:00,62.4,52.5,29.81,NNW,338,0.0,0.0,70,0.00,,---,0.00,VWS V13.01,2013-03-09 13:20:00,
2013-03-09 08:30:00,63.3,53.0,29.82,North,0,4.9,7.8,69,0.00,,---,0.00,VWS V13.01,2013-03-09 13:30:00,
2013-03-09 08:35:00,63.5,52.8,29.82,NNW,338,4.3,4.9,68,0.00,,---,0.00,VWS V13.01,2013-03-09 13:35:00,
2013-03-09 08:45:00,64.8,53.2,29.82,North,0,1.6,4.9,66,0.00,,---,0.00,VWS V13.01,2013-03-09 13:45:00,
2013-03-09 08:50:00,64.9,53.3,29.83,NNE,22,2.2,4.0,66,0.00,,---,0.00,VWS V13.01,2013-03-09 13:50:00,
2013-03-09 09:00:00,66.2,54.5,29.82,NNE,22,4.7,4.7,66,0.00,,---,0.00,VWS V13.01,2013-03-09 14:00:00,
2013-03-09 09:10:00,67.6,55.0,29.82,North,0,0.9,5.6,64,0.00,,---,0.00,VWS V13.01,2013-03-09 14:10:00,
2013-03-09 09:20:00,69.1,56.0,29.82,North,0,2.0,2.0,63,0.00,,---,0.00,VWS V13.01,2013-03-09 14:20:00,
2013-03-09 09:30:00,70.3,56.3,29.82,ENE,68,4.5,4.5,61,0.00,,---,0.00,VWS V13.01,2013-03-09 14:30:00,
2013-03-09 09:40:00,71.6,56.5,29.82,North,0,7.4,7.8,59,0.00,,---,0.00,VWS V13.01,2013-03-09 14:40:00,
2013-03-09 09:45:00,71.8,56.7,29.83,ENE,68,5.6,7.4,59,0.00,,---,0.00,VWS V13.01,2013-03-09 14:45:00,
2013-03-09 09:55:00,72.3,56.2,29.83,North,0,5.6,6.3,57,0.00,,---,0.00,VWS V13.01,2013-03-09 14:55:00,
2013-03-09 10:05:00,73.2,56.1,29.83,NE,45,2.5,7.4,55,0.00,,---,0.00,VWS V13.01,2013-03-09 15:05:00,
2013-03-09 10:15:00,74.1,55.9,29.83,ENE,68,5.1,7.4,53,0.00,,---,0.00,VWS V13.01,2013-03-09 15:15:00,
2013-03-09 10:25:00,73.8,55.1,29.83,NE,45,9.0,9.0,52,0.00,,---,0.00,VWS V13.01,2013-03-09 15:25:00,
2013-03-09 10:30:00,73.6,55.9,29.83,East,90,2.7,9.0,54,0.00,,---,0.00,VWS V13.01,2013-03-09 15:30:00,
2013-03-09 10:40:00,74.5,55.7,29.83,NE,45,4.5,6.9,52,0.00,,---,0.00,VWS V13.01,2013-03-09 15:40:00,
2013-03-09 10:45:00,74.5,55.7,29.83,ENE,68,2.9,4.5,52,0.00,,---,0.00,VWS V13.01,2013-03-09 15:45:00,
2013-03-09 10:55:00,75.2,55.8,29.83,ENE,68,0.9,12.8,51,0.00,,---,0.00,VWS V13.01,2013-03-09 15:55:00,
2013-03-09 11:05:00,75.0,55.1,29.83,NNE,22,6.5,6.9,50,0.00,,---,0.00,VWS V13.01,2013-03-09 16:05:00,
2013-03-09 11:15:00,75.0,55.1,29.82,NE,45,7.4,8.5,50,0.00,,---,0.00,VWS V13.01,2013-03-09 16:15:00,
2013-03-09 11:20:00,75.2,55.3,29.83,NE,45,3.1,9.8,50,0.00,,---,0.00,VWS V13.01,2013-03-09 16:20:00,
2013-03-09 11:30:00,75.6,55.1,29.83,NE,45,7.2,7.2,49,0.00,,---,0.00,VWS V13.01,2013-03-09 16:30:00,
2013-03-09 11:40:00,75.9,55.4,29.83,ENE,68,6.3,7.6,49,0.00,,---,0.00,VWS V13.01,2013-03-09 16:40:00,
2013-03-09 11:50:00,75.7,54.7,29.83,ENE,68,4.0,10.1,48,0.00,,---,0.00,VWS V13.01,2013-03-09 16:50:00,
2013-03-09 12:00:00,76.1,55.0,29.83,NE,45,1.8,4.9,48,0.00,,---,0.00,VWS V13.01,2013-03-09 17:00:00,
2013-03-09 12:10:00,76.3,55.2,29.82,NE,45,6.9,6.9,48,0.00,,---,0.00,VWS V13.01,2013-03-09 17:10:00,
2013-03-09 12:20:00,76.3,55.2,29.82,ENE,68,7.4,7.4,48,0.00,,---,0.00,VWS V13.01,2013-03-09 17:20:00,
2013-03-09 12:25:00,76.5,54.8,29.82,NNE,22,4.0,7.4,47,0.00,,---,0.00,VWS V13.01,2013-03-09 17:25:00,
2013-03-09 12:35:00,76.3,54.6,29.81,NE,45,4.3,6.5,47,0.00,,---,0.00,VWS V13.01,2013-03-09 17:35:00,
2013-03-09 12:40:00,76.3,54.6,29.81,NE,45,11.6,11.6,47,0.00,,---,0.00,VWS V13.01,2013-03-09 17:40:00,
2013-03-09 12:50:00,75.9,54.8,29.81,NNE,22,8.3,8.3,48,0.00,,---,0.00,VWS V13.01,2013-03-09 17:50:00,
2013-03-09 13:00:00,75.9,56.0,29.81,ENE,68,2.7,10.3,50,0.00,,---,0.00,VWS V13.01,2013-03-09 18:00:00,
2013-03-09 13:05:00,75.9,56.0,29.81,ENE,68,2.7,2.7,50,0.00,,---,0.00,VWS V13.01,2013-03-09 18:05:00,
2013-03-09 13:10:00,76.3,56.3,29.81,NE,45,8.1,8.1,50,0.00,,---,0.00,VWS V13.01,2013-03-09 18:10:00,
2013-03-09 13:20:00,75.9,56.0,29.81,East,90,4.3,7.8,50,0.00,,---,0.00,VWS V13.01,2013-03-09 18:20:00,
2013-03-09 13:30:00,75.6,55.6,29.80,East,90,12.1,12.1,50,0.00,,---,0.00,VWS V13.01,2013-03-09 18:30:00,
2013-03-09 13:40:00,75.0,55.7,29.79,NE,45,4.3,6.7,51,0.00,,---,0.00,VWS V13.01,2013-03-09 18:40:00,
2013-03-09 13:50:00,74.7,55.3,29.79,ENE,68,5.1,7.2,51,0.00,,---,0.00,VWS V13.01,2013-03-09 18:50:00,
2013-03-09 13:55:00,74.8,56.0,29.78,WSW,248,11.0,11.0,52,0.00,,---,0.00,VWS V13.01,2013-03-09 18:55:00,
2013-03-09 14:05:00,75.0,55.7,29.79,WSW,248,8.1,8.1,51,0.00,,---,0.00,VWS V13.01,2013-03-09 19:05:00,
2013-03-09 14:10:00,75.4,55.5,29.79,ENE,68,5.1,8.1,50,0.00,,---,0.00,VWS V13.01,2013-03-09 19:10:00,
2013-03-09 14:20:00,75.6,55.6,29.78,WSW,248,11.6,11.6,50,0.00,,---,0.00,VWS V13.01,2013-03-09 19:20:00,
2013-03-09 14:25:00,75.7,55.2,29.79,NW,315,13.2,13.2,49,0.00,,---,0.00,VWS V13.01,2013-03-09 19:25:00,
2013-03-09 14:35:00,74.8,55.0,29.79,NE,45,8.3,8.3,50,0.00,,---,0.00,VWS V13.01,2013-03-09 19:35:00,
2013-03-09 14:45:00,74.1,54.3,29.79,NNE,22,8.1,8.1,50,0.00,,---,0.00,VWS V13.01,2013-03-09 19:45:00,
2013-03-09 14:55:00,73.9,54.7,29.78,WSW,248,6.5,6.5,51,0.00,,---,0.00,VWS V13.01,2013-03-09 19:55:00,
2013-03-09 15:05:00,74.1,54.9,29.78,WSW,248,9.4,9.4,51,0.00,,---,0.00,VWS V13.01,2013-03-09 20:05:00,
2013-03-09 15:15:00,74.3,55.0,29.77,WSW,248,4.3,7.4,51,0.00,,---,0.00,VWS V13.01,2013-03-09 20:15:00,
2013-03-09 15:25:00,73.9,54.2,29.77,WSW,248,10.3,10.3,50,0.00,,---,0.00,VWS V13.01,2013-03-09 20:25:00,
2013-03-09 15:35:00,73.9,54.7,29.77,NNE,22,3.8,3.8,51,0.00,,---,0.00,VWS V13.01,2013-03-09 20:35:00,
2013-03-09 15:45:00,73.2,54.6,29.77,WSW,248,2.2,10.5,52,0.00,,---,0.00,VWS V13.01,2013-03-09 20:45:00,
2013-03-09 15:55:00,73.2,54.6,29.77,WSW,248,5.6,11.0,52,0.00,,---,0.00,VWS V13.01,2013-03-09 20:55:00,
2013-03-09 16:00:00,73.2,54.6,29.78,WSW,248,5.6,5.6,52,0.00,,---,0.00,VWS V13.01,2013-03-09 21:00:00,
2013-03-09 16:10:00,73.0,53.9,29.78,NNE,22,3.4,12.1,51,0.00,,---,0.00,VWS V13.01,2013-03-09 21:10:00,
2013-03-09 16:20:00,72.0,53.4,29.78,NE,45,8.5,8.5,52,0.00,,---,0.00,VWS V13.01,2013-03-09 21:20:00,
2013-03-09 16:30:00,71.2,52.7,29.78,NE,45,9.0,9.0,52,0.00,,---,0.00,VWS V13.01,2013-03-09 21:30:00,
2013-03-09 16:35:00,71.2,53.2,29.77,NE,45,6.5,9.0,53,0.00,,---,0.00,VWS V13.01,2013-03-09 21:35:00,
2013-03-09 16:45:00,71.2,52.7,29.78,ENE,68,4.5,6.5,52,0.00,,---,0.00,VWS V13.01,2013-03-09 21:45:00,
2013-03-09 16:50:00,71.1,52.6,29.77,ENE,68,6.9,6.9,52,0.00,,---,0.00,VWS V13.01,2013-03-09 21:50:00,
2013-03-09 17:00:00,70.7,51.7,29.77,NE,45,8.3,8.3,51,0.00,,---,0.00,VWS V13.01,2013-03-09 22:00:00,
2013-03-09 17:10:00,70.3,52.4,29.78,NNW,338,5.6,5.6,53,0.00,,---,0.00,VWS V13.01,2013-03-09 22:10:00,
2013-03-09 17:20:00,70.2,52.2,29.78,NE,45,7.4,7.4,53,0.00,,---,0.00,VWS V13.01,2013-03-09 22:20:00,
2013-03-09 17:25:00,70.0,52.1,29.78,ENE,68,4.3,12.8,53,0.00,,---,0.00,VWS V13.01,2013-03-09 22:25:00,
2013-03-09 17:30:00,70.0,52.1,29.78,ENE,68,5.4,5.4,53,0.00,,---,0.00,VWS V13.01,2013-03-09 22:30:00,
2013-03-09 17:40:00,69.6,51.8,29.79,ENE,68,0.2,9.6,53,0.00,,---,0.00,VWS V13.01,2013-03-09 22:40:00,
2013-03-09 17:45:00,69.4,51.6,29.79,NE,45,4.9,4.9,53,0.00,,---,0.00,VWS V13.01,2013-03-09 22:45:00,
2013-03-09 17:55:00,69.6,51.8,29.79,NE,45,2.5,9.2,53,0.00,,---,0.00,VWS V13.01,2013-03-09 22:55:00,
2013-03-09 18:00:00,69.4,52.1,29.80,North,0,6.7,6.7,54,0.00,,---,0.00,VWS V13.01,2013-03-09 23:00:00,
2013-03-09 18:10:00,69.1,51.8,29.80,NE,45,4.3,6.9,54,0.00,,---,0.00,VWS V13.01,2013-03-09 23:10:00,
2013-03-09 18:20:00,68.7,51.4,29.80,NE,45,6.3,6.3,54,0.00,,---,0.00,VWS V13.01,2013-03-09 23:20:00,
2013-03-09 18:30:00,68.7,51.9,29.79,NNE,22,6.7,7.8,55,0.00,,---,0.00,VWS V13.01,2013-03-09 23:30:00,
2013-03-09 18:40:00,68.7,51.4,29.79,ENE,68,7.6,7.6,54,0.00,,---,0.00,VWS V13.01,2013-03-09 23:40:00,
2013-03-09 18:45:00,68.5,51.2,29.79,ENE,68,5.1,7.6,54,0.00,,---,0.00,VWS V13.01,2013-03-09 23:45:00,
2013-03-09 18:55:00,68.4,51.6,29.79,NE,45,1.3,6.9,55,0.00,,---,0.00,VWS V13.01,2013-03-09 23:55:00,
2013-03-09 19:00:00,68.5,51.8,29.79,ENE,68,2.7,2.7,55,0.00,,---,0.00,VWS V13.01,2013-03-10 00:00:00,
2013-03-09 19:10:00,68.5,51.8,29.79,NE,45,10.3,10.3,55,0.00,,---,0.00,VWS V13.01,2013-03-10 00:10:00,
2013-03-09 19:20:00,68.4,51.1,29.79,ENE,68,13.0,13.0,54,0.00,,---,0.00,VWS V13.01,2013-03-10 00:20:00,
2013-03-09 19:25:00,68.2,50.9,29.79,NE,45,8.1,13.0,54,0.00,,---,0.00,VWS V13.01,2013-03-10 00:25:00,
2013-03-09 19:35:00,68.2,50.9,29.80,NE,45,6.5,9.6,54,0.00,,---,0.00,VWS V13.01,2013-03-10 00:35:00,
2013-03-09 19:45:00,68.2,51.4,29.80,ENE,68,4.9,7.8,55,0.00,,---,0.00,VWS V13.01,2013-03-10 00:45:00,
2013-03-09 19:55:00,68.2,51.4,29.81,NE,45,3.8,5.1,55,0.00,,---,0.00,VWS V13.01,2013-03-10 00:55:00,
2013-03-09 20:00:00,68.2,51.4,29.80,NE,45,8.7,8.7,55,0.00,,---,0.00,VWS V13.01,2013-03-10 01:00:00,
2013-03-09 20:10:00,68.2,50.9,29.80,East,90,6.3,10.3,54,0.00,,---,0.00,VWS V13.01,2013-03-10 01:10:00,
2013-03-09 20:15:00,68.2,50.9,29.80,NE,45,2.2,12.3,54,0.00,,---,0.00,VWS V13.01,2013-03-10 01:15:00,
2013-03-09 20:25:00,68.4,51.6,29.82,ENE,68,3.6,18.1,55,0.00,,---,0.00,VWS V13.01,2013-03-10 01:25:00,
2013-03-09 20:30:00,68.4,52.1,29.82,NE,45,5.6,7.8,56,0.00,,---,0.00,VWS V13.01,2013-03-10 01:30:00,
2013-03-09 20:40:00,68.5,52.2,29.81,East,90,10.7,10.7,56,0.00,,---,0.00,VWS V13.01,2013-03-10 01:40:00,
2013-03-09 20:50:00,68.5,51.8,29.82,NE,45,4.9,7.6,55,0.00,,---,0.00,VWS V13.01,2013-03-10 01:50:00,
2013-03-09 21:00:00,68.4,51.6,29.82,NE,45,5.4,5.4,55,0.00,,---,0.00,VWS V13.01,2013-03-10 02:00:00,
2013-03-09 21:10:00,68.4,52.1,29.82,ENE,68,4.5,7.6,56,0.00,,---,0.00,VWS V13.01,2013-03-10 02:10:00,
2013-03-09 21:20:00,68.4,52.1,29.83,ENE,68,7.2,7.2,56,0.00,,---,0.00,VWS V13.01,2013-03-10 02:20:00,
2013-03-09 21:25:00,68.4,52.1,29.83,ENE,68,0.7,7.2,56,0.00,,---,0.00,VWS V13.01,2013-03-10 02:25:00,
2013-03-09 21:35:00,68.2,51.4,29.84,NE,45,3.6,8.3,55,0.00,,---,0.00,VWS V13.01,2013-03-10 02:35:00,
2013-03-09 21:45:00,67.8,50.6,29.83,NNE,22,6.9,6.9,54,0.00,,---,0.00,VWS V13.01,2013-03-10 02:45:00,
2013-03-09 21:55:00,67.8,51.1,29.83,ENE,68,4.0,8.5,55,0.00,,---,0.00,VWS V13.01,2013-03-10 02:55:00,
2013-03-09 22:00:00,67.8,51.1,29.83,NNE,22,8.5,8.5,55,0.00,,---,0.00,VWS V13.01,2013-03-10 03:00:00,
2013-03-09 22:10:00,67.8,50.6,29.83,NNE,22,4.3,7.2,54,0.00,,---,0.00,VWS V13.01,2013-03-10 03:10:00,
2013-03-09 22:20:00,67.8,51.6,29.82,NE,45,4.0,4.0,56,0.00,,---,0.00,VWS V13.01,2013-03-10 03:20:00,
2013-03-09 22:25:00,67.8,51.6,29.82,ENE,68,2.7,4.0,56,0.00,,---,0.00,VWS V13.01,2013-03-10 03:25:00,
2013-03-09 22:35:00,67.8,51.6,29.81,East,90,2.0,2.0,56,0.00,,---,0.00,VWS V13.01,2013-03-10 03:35:00,
2013-03-09 22:40:00,67.8,51.6,29.81,East,90,2.0,2.0,56,0.00,,---,0.00,VWS V13.01,2013-03-10 03:40:00,
2013-03-09 22:50:00,68.0,52.2,29.80,NE,45,12.3,12.3,57,0.00,,---,0.00,VWS V13.01,2013-03-10 03:50:00,
2013-03-09 22:55:00,68.2,52.9,29.80,ESE,112,7.6,12.3,58,0.00,,---,0.00,VWS V13.01,2013-03-10 03:55:00,
2013-03-09 23:05:00,68.2,52.4,29.81,East,90,1.6,6.0,57,0.00,,---,0.00,VWS V13.01,2013-03-10 04:05:00,
2013-03-09 23:15:00,68.2,51.9,29.81,East,90,4.9,5.4,56,0.00,,---,0.00,VWS V13.01,2013-03-10 04:15:00,
2013-03-09 23:20:00,68.2,51.9,29.80,NE,45,6.7,6.7,56,0.00,,---,0.00,VWS V13.01,2013-03-10 04:20:00,
2013-03-09 23:30:00,68.2,51.9,29.81,ENE,68,4.9,4.9,56,0.00,,---,0.00,VWS V13.01,2013-03-10 04:30:00,
2013-03-09 23:40:00,68.0,52.2,29.81,ENE,68,7.6,7.6,57,0.00,,---,0.00,VWS V13.01,2013-03-10 04:40:00,
2013-03-09 23:50:00,68.2,51.9,29.80,ESE,112,4.3,6.0,56,0.00,,---,0.00,VWS V13.01,2013-03-10 04:50:00,
2013-03-09 23:55:00,68.2,51.9,29.81,East,90,7.6,7.6,56,0.00,,---,0.00,VWS V13.01,2013-03-10 04:55:00,